Home > Weather > Lübeck > Past weeks

Flag for Germany Past Weather in Lübeck, Schleswig-Holstein, Germany — Yesterday and Last 2 Weeks

Now
64 °F

Clear.


Feels Like: 64 °F
Forecast: 62 / 85 °F
Wind: 10 mph from East

Location: Hamburg-Fuhlsbuettel

Current Time: Aug 28, 2016 at 12:37:27 AM

Latest Report: Aug 27, 2016 at 11:50 PM


Visibility: 10 mi

Pressure: 30.01 "Hg

Humidity: 68%

Dew Point: 54 °F

Location of LübeckLocation

Past Weather in Lübeck — Graph

°F

Lübeck Temperature Yesterday

Maximum temperature yesterday: 77 °F (at 2:50 PM)
Minimum temperature yesterday: 57 °F (at 5:50 AM)
Average temperature yesterday: 67 °F

High & Low Weather Summary for the Past Weeks

 TemperatureHumidityPressure
High88 °F (Aug 25, 4:20 PM)100% (Aug 13, 2:50 AM)30.30 "Hg (Aug 13, 2:50 AM)
Low43 °F (Aug 17, 5:50 AM)29% (Aug 25, 5:20 PM)29.80 "Hg (Aug 20, 12:20 AM)
Average64 °F77%30.07 "Hg
* Reported Aug 12 11:20 PM — Aug 27 11:20 PM, Lübeck, Weather by CustomWeather, © 2016

Note: Actual official high and low records may vary slightly from our data, if they occured in-between our weather recording intervals... More about our weather records

Advertising

Lübeck Weather History for the Previous 24 Hours

Scroll right to see more
 ConditionsComfort  
Time TempWeatherWind HumidityBarometerVisibility
11:20 PM
Sat, Aug 27
64 °FClear.9 mph68%30.04 "Hg10 mi
10:50 PM66 °FClear.9 mph64%30.04 "Hg10 mi
10:20 PM64 °FClear.9 mph68%30.04 "Hg10 mi
9:50 PM66 °FClear.9 mph64%30.07 "Hg10 mi
9:20 PM66 °FClear.9 mph64%30.07 "Hg10 mi
8:50 PM66 °FPassing clouds.8 mph64%30.07 "HgN/A
8:20 PM68 °FSunny.8 mph64%30.07 "Hg10 mi
7:50 PM70 °FSunny.9 mph64%30.07 "Hg10 mi
7:20 PM72 °FSunny.9 mph61%30.07 "Hg10 mi
6:50 PM72 °FPassing clouds.9 mph61%30.09 "HgN/A
6:20 PM73 °FPassing clouds.9 mph57%30.09 "HgN/A
5:50 PM75 °FPassing clouds.12 mph57%30.09 "HgN/A
5:20 PM75 °FPassing clouds.10 mph61%30.09 "HgN/A
4:50 PM75 °FScattered clouds.10 mph61%30.12 "HgN/A
4:20 PM77 °FPassing clouds.10 mph57%30.12 "HgN/A
3:50 PM77 °FPassing clouds.8 mph54%30.12 "HgN/A
3:20 PM77 °FPassing clouds.9 mph54%30.12 "HgN/A
2:50 PM77 °FPassing clouds.7 mph54%30.12 "HgN/A
2:20 PM75 °FPassing clouds.7 mph57%30.15 "HgN/A
1:50 PM75 °FPassing clouds.6 mph57%30.15 "HgN/A
1:20 PM75 °FPassing clouds.7 mph57%30.15 "HgN/A
12:50 PM73 °FPassing clouds.6 mph65%30.15 "HgN/A
12:20 PM73 °FPassing clouds.6 mph65%30.15 "HgN/A
11:50 AM72 °FPassing clouds.5 mph65%30.15 "HgN/A
11:20 AM70 °FPassing clouds.7 mph69%30.15 "HgN/A
10:50 AM68 °FPassing clouds.7 mph73%30.18 "HgN/A
10:20 AM68 °FPassing clouds.5 mph78%30.18 "HgN/A
9:50 AM66 °FScattered clouds.8 mph73%30.18 "HgN/A
9:20 AM66 °FScattered clouds.6 mph78%30.18 "HgN/A
8:50 AM66 °FPassing clouds.5 mph83%30.15 "HgN/A
8:20 AM63 °FSunny.2 mph94%30.15 "Hg10 mi
7:50 AM61 °FSunny.2 mph94%30.15 "Hg10 mi
7:20 AM59 °FFog.2 mph94%30.15 "HgN/A
6:50 AM59 °FFog.2 mph94%30.15 "HgN/A
6:20 AM59 °FFog.3 mph94%30.15 "HgN/A
5:50 AM57 °FClear.5 mph100%30.15 "Hg10 mi
5:20 AM59 °FPassing clouds.5 mph100%30.15 "HgN/A
4:50 AM61 °FFog.5 mph94%30.15 "HgN/A
4:20 AM61 °FCool.3 mph94%30.15 "HgN/A
3:50 AM61 °FPassing clouds.5 mph94%30.12 "HgN/A
3:20 AM61 °FClear.5 mph94%30.12 "Hg10 mi
2:50 AM61 °FClear.5 mph100%30.12 "Hg10 mi
2:20 AM63 °FClear.3 mph94%30.12 "Hg10 mi
1:50 AM63 °FPassing clouds.3 mph94%30.12 "HgN/A
1:20 AM63 °FPassing clouds.5 mph94%30.12 "HgN/A
12:50 AM64 °FClear.5 mph88%30.12 "Hg10 mi
12:20 AM63 °FPassing clouds.5 mph94%30.09 "HgN/A
Weather by CustomWeather, © 2016

See weather overviewHow to use our weather pages